Aérodrome :
LOGIN :

S'inscrire | Disclaimer

   EN    FR    IT 

 










Légende :    VFR   VFR Marginal   IFR   IFR Intensif   IFR Très Intensif
Visi : 
Plafond : 
>= 8 km
>= 3000ft
5 à 8 km
1000 à 3000 ft
1500m à 5 km
500 à 1000 ft
800 à 1500m
200 à 500 ft
< 800m
< 200 ft
Symboles :   Orages  Brouillard  Fortes neiges  Fortes précipitations  Vent > 20 kt
SIGMETs :   Divers  Orages  Givrage  Turbulence  Onde Orograph.  Cendres Volcan.






- Altitude de l'aérodrome : 392 ft
- Code IATA : CDG


LFPG - Paris-Aeroport Charles De Gaulle

DERNIER METAR :
  • 080530Z 36006KT CAVOK M02/M05 Q1035 NOSIG

METARs EXPIRÉS :
  • 080500Z 02003KT CAVOK M02/M04 Q1035 NOSIG
  • 080430Z 03006KT CAVOK M02/M04 Q1035 NOSIG
  • 080400Z 03006KT CAVOK M02/M04 Q1035 NOSIG
  • 080330Z 01006KT CAVOK M02/M04 Q1035 NOSIG
  • 080300Z 01008KT CAVOK M02/M03 Q1036 NOSIG

TAF TAF LFPG
Valide du 08 à 06h jusqu'au 09 à 12h UTC


080500Z 0806/0912 03005KT CAVOK TX06/0815Z TNM03/0906Z
ATIS : +33 1 48 62 10 92



MET'MAP, la Météo Aéronautique d'un coup d'oeil ! - Copyright ORBIFLY Décembre 2007 - Disclaimer

ORBIFLY MET'MAP TEAM :

Programmation & Développement : Alexandra Zaïnal
Sur une idée originale de : Baudouin d'Aumeries
Soutien technique & logistique : Manuel Goepfert
Assistance : Marc-Olivier Méhu




SOURCES & CREDITS :

   NOAA